Theta_e
282 282 281 282 281 281 281 280 280 281 280 280 280 280 280 280 280 279 279 280 280 280 280 280 280 282 284 285 285 286 286 286 284 286 289 289 285 285 286 286 287 287 289
281 281 280 280 280 279 279 280 280 280 281 280 280 280 280 279 279 278 278 278 277 277 279 279 279 281 280 282 284 283 284 286 284 283 286 287 283 283 284 285 285 286 286
279 279 279 279 278 278 279 279 279 279 279 279 279 279 279 279 279 278 278 278 278 277 277 277 278 279 279 280 280 281 283 284 284 283 284 286 287 282 283 283 284 285 285
279 278 278 278 278 278 279 278 278 278 278 278 278 278 278 278 279 278 278 278 277 278 278 278 278 278 279 279 280 280 281 281 282 282 282 283 284 285 282 284 282 283 284
277 277 277 278 278 277 277 277 277 277 277 277 276 276 276 277 277 277 278 278 278 278 278 278 279 279 281 281 280 280 280 280 280 280 280 281 282 281 279 283 282 284 283
276 276 277 276 276 276 275 274 274 273 273 273 272 272 272 273 276 277 277 275 276 276 276 277 278 278 279 281 282 282 282 281 280 280 280 279 280 282 283 282 283 281 280
275 274 274 274 272 272 272 271 270 270 270 270 270 269 269 269 273 274 275 273 272 272 273 274 276 278 278 277 279 281 281 282 282 280 280 281 281 282 283 282 281 282 282
272 270 271 271 269 269 269 268 268 268 267 267 266 266 266 267 271 272 272 271 270 270 270 271 271 272 274 275 276 276 276 276 276 277 278 279 281 283 284 284 284 283 284
270 270 269 268 266 266 264 265 265 265 264 264 265 264 264 264 268 270 271 268 268 268 270 270 270 270 272 275 272 272 273 274 278 279 280 281 283 286 286 284 283 282 281
269 268 268 267 262 263 263 263 263 262 263 263 263 263 263 262 266 269 269 268 266 267 268 269 272 271 273 275 273 272 270 271 273 273 274 276 279 280 285 285 283 281 282
267 266 265 264 262 262 261 262 261 260 261 260 260 261 261 262 263 268 270 268 267 267 267 268 270 273 273 274 275 272 271 273 274 273 275 276 277 278 280 282 284 284 282
265 264 261 260 260 261 259 259 259 259 258 258 259 260 261 262 265 267 270 271 272 268 267 268 269 272 273 274 274 275 276 275 272 271 271 272 275 277 280 281 283 283 286
258 256 256 258 259 260 258 258 258 259 258 258 259 259 260 262 263 268 270 271 272 269 269 270 274 275 276 275 275 274 272 270 269 268 268 270 274 275 280 280 283 284 284
251 255 257 258 259 259 260 260 258 258 258 258 258 259 261 263 266 267 267 267 270 271 272 270 271 273 274 274 272 272 271 270 269 268 269 271 273 274 274 281 281 282 281
254 257 258 258 257 259 260 259 260 261 262 263 264 265 264 264 266 271 272 271 272 273 274 273 271 270 269 267 266 267 268 267 267 269 269 269 270 271 274 280 281 281 280
255 257 258 258 258 259 258 258 264 266 268 269 270 269 267 270 272 273 274 274 275 276 271 268 268 268 268 268 268 269 268 267 268 268 269 270 270 272 274 278 281 281 280
251 255 257 258 257 257 257 257 256 260 265 266 267 268 269 270 271 272 273 274 273 270 263 263 264 265 265 266 267 268 267 268 268 268 269 270 271 276 275 275 276 278 279
248 254 255 256 256 257 257 256 256 256 256 257 263 265 267 269 270 271 270 269 260 262 261 262 262 263 264 265 266 267 267 267 267 268 269 270 271 275 276 276 278 278 278
251 252 252 255 256 256 256 256 256 256 256 256 258 261 262 266 269 267 267 260 259 259 260 260 262 263 263 265 268 267 266 265 266 267 268 270 272 275 276 277 278 278 278
249 254 256 253 254 254 254 254 254 255 255 256 257 258 259 264 259 259 260 260 259 259 260 260 261 262 264 266 267 268 267 266 266 266 267 269 273 274 276 277 277 277 277
249 251 254 253 251 252 253 253 253 254 255 255 256 258 267 261 258 259 259 260 260 260 260 261 261 263 264 265 266 267 269 268 269 270 271 273 275 275 275 276 276 275 273
249 248 250 249 251 252 251 252 252 253 254 255 255 257 264 258 258 259 260 260 261 262 262 262 263 264 265 266 266 267 267 267 268 268 268 269 269 269 272 272 271 271 270
249 250 251 250 250 251 252 250 250 252 253 254 254 255 256 257 257 259 260 260 261 262 263 263 264 265 267 267 267 267 267 267 268 269 269 269 269 269 270 269 269 269 268
247 250 251 250 248 250 250 250 251 252 252 253 252 254 255 255 256 258 259 260 261 262 263 263 264 264 266 267 268 268 268 269 269 269 269 268 268 268 268 268 268 268 268
246 249 250 250 247 249 248 248 250 248 250 251 253 253 254 255 255 256 258 260 260 261 261 262 264 264 266 267 268 268 269 268 268 268 268 268 267 267 267 266 266 266 266
248 250 250 249 249 248 246 247 248 249 250 252 253 253 254 254 255 256 257 258 259 260 261 262 262 262 264 268 268 270 271 271 268 268 267 267 266 266 265 265 265 264 264
Wind_Speed
3 3 5 5 6 6 6 6 6 7 7 9 8 9 9 9 7 5 7 8 8 10 9 8 9 8 7 6 5 6 8 9 13 11 11 8 6 8 8 8 9 11 11
3 3 4 4 5 5 6 6 6 7 9 10 11 13 14 13 12 11 11 9 9 11 12 11 13 9 9 8 8 10 9 10 10 16 12 10 9 8 8 10 9 9 10
3 3 4 5 5 5 6 6 6 6 7 7 8 10 11 12 13 13 12 13 13 13 12 12 14 12 13 10 8 9 10 9 10 11 12 10 10 4 8 8 8 10 8
2 2 4 5 6 6 6 6 6 6 8 8 9 10 11 12 13 13 14 15 14 14 14 14 15 14 14 13 12 13 11 11 11 11 11 10 10 8 5 8 8 7 10
4 3 4 4 4 5 5 7 7 9 10 11 13 13 14 13 11 14 15 15 16 17 17 16 16 16 23 22 13 13 13 12 11 11 12 10 10 7 8 8 9 9 9
4 5 5 5 7 8 8 10 11 12 12 13 13 14 15 11 22 27 25 18 19 19 18 18 17 20 21 30 31 32 26 16 16 15 14 14 15 9 8 10 11 9 11
4 3 4 4 5 8 10 11 12 13 13 13 14 14 15 15 26 27 28 17 18 18 19 18 17 13 17 17 23 29 28 29 31 21 20 19 18 14 10 11 12 13 14
2 3 3 5 7 9 10 11 12 11 13 13 14 14 15 13 26 28 29 18 16 18 18 18 19 19 18 20 17 17 18 19 20 17 20 21 19 17 15 14 15 15 13
3 2 4 5 8 10 11 12 12 12 13 13 13 14 15 15 26 28 25 17 16 17 16 17 17 18 24 30 22 22 23 22 24 37 39 41 40 36 29 13 16 14 14
2 5 6 6 5 10 11 12 11 11 14 12 14 14 16 16 23 27 23 12 15 13 15 16 22 21 30 30 20 17 20 21 20 22 21 27 32 29 36 26 17 16 13
3 6 6 6 8 10 11 9 11 12 13 12 14 13 14 15 16 26 26 15 12 13 13 12 12 27 31 32 32 19 20 23 25 20 16 16 17 18 16 17 19 17 18
4 5 6 8 8 8 10 11 10 11 12 12 12 11 10 13 19 22 27 28 26 16 15 13 14 29 32 32 28 31 35 32 15 15 16 16 16 15 15 16 18 16 16
3 6 7 8 9 9 9 11 10 10 9 10 9 11 12 11 12 26 29 30 29 20 14 22 35 36 38 30 29 32 29 15 14 15 15 16 14 16 18 17 18 17 17
5 7 7 7 8 8 7 8 8 9 9 10 11 12 12 12 11 11 12 14 22 20 23 19 24 30 33 29 22 21 14 14 14 15 15 15 14 14 16 15 14 14 12
5 6 7 6 6 8 8 8 9 11 12 12 12 13 14 13 13 25 24 15 14 17 22 14 13 13 13 12 13 14 14 13 14 14 14 14 14 15 18 18 11 11 12
5 5 5 6 6 7 8 10 18 22 24 25 28 21 12 26 31 32 31 32 32 32 15 13 13 14 15 15 15 13 11 14 13 13 14 14 15 19 16 13 7 11 13
5 5 5 6 6 7 8 8 12 19 25 21 22 25 27 27 29 30 31 30 28 23 9 11 12 13 14 15 15 13 12 11 12 12 13 13 14 11 10 10 10 11 12
4 7 5 5 5 6 7 8 8 8 11 17 18 22 24 27 29 28 27 22 12 11 9 11 12 13 14 15 15 13 10 9 10 10 11 12 12 13 6 9 9 12 9
4 3 3 4 5 6 7 7 8 8 8 10 13 17 17 27 25 23 23 8 10 11 11 11 12 13 13 14 14 10 9 9 9 10 10 10 11 11 10 10 10 14 15
4 7 5 3 5 5 5 7 7 7 8 9 9 10 13 12 12 12 10 10 9 10 10 11 12 12 12 13 14 10 8 9 9 9 11 11 12 11 12 7 5 6 7
3 3 5 4 3 4 5 6 6 6 8 9 10 10 24 11 11 11 11 10 10 10 11 11 12 12 12 12 12 12 8 7 8 10 11 11 9 7 3 2 3 4 6
2 3 2 3 4 4 5 6 5 6 7 8 9 9 22 8 9 10 11 10 10 10 9 10 10 11 11 12 12 11 10 8 7 5 4 3 3 3 3 4 6 6 7
2 2 3 3 3 4 5 4 4 4 6 7 8 9 9 9 9 10 11 11 11 11 10 10 11 11 11 10 10 10 9 9 8 6 5 5 5 5 5 5 6 7 7
3 3 3 3 3 3 4 5 5 6 6 7 6 7 8 9 10 11 11 11 11 11 10 11 11 15 13 12 9 9 8 9 7 7 7 5 6 7 7 7 7 9 8
3 3 3 3 3 3 4 4 5 4 5 5 6 6 8 8 9 10 10 10 11 11 12 12 10 15 17 20 19 11 12 14 12 11 7 8 9 10 9 8 9 10 10
3 3 3 3 3 3 4 4 5 5 5 6 7 7 7 8 8 9 9 10 10 11 13 10 13 19 19 14 18 21 15 14 12 14 8 8 8 8 9 11 14 9 10
Wind_Direction
32 11 4 360 355 353 351 348 341 339 336 336 333 325 324 321 316 292 295 293 296 299 300 296 292 288 283 274 252 251 255 253 263 268 272 279 264 246 249 237 232 233 237
256 249 269 302 325 326 321 315 317 317 320 322 325 324 325 322 321 316 311 308 294 296 293 290 286 291 281 275 270 266 259 257 266 275 274 272 247 249 245 242 242 234 232
286 297 303 307 312 302 294 293 295 290 285 287 287 287 289 291 294 300 301 298 295 289 285 281 280 277 278 276 267 269 268 264 262 265 268 267 269 230 247 247 242 242 237
244 289 308 322 320 310 306 303 297 291 294 292 286 283 284 285 283 285 284 284 281 277 277 275 271 268 269 272 271 273 275 270 265 264 266 261 262 258 240 257 249 229 240
67 28 341 322 321 323 329 329 326 323 313 309 308 305 302 298 294 296 291 287 282 278 274 271 270 271 272 273 273 271 270 270 270 270 269 267 252 241 241 252 249 254 233
36 14 354 350 347 344 337 329 320 314 315 313 307 304 303 299 303 303 300 295 292 289 284 280 276 273 269 272 274 275 267 263 264 266 267 263 264 251 244 242 253 249 261
31 10 351 359 351 333 325 321 317 314 311 307 305 305 303 303 304 301 301 297 294 290 289 287 286 285 282 273 272 275 278 279 275 275 270 264 266 256 250 243 239 242 246
24 346 8 353 328 321 314 310 308 306 307 304 303 303 297 297 303 304 301 295 289 287 286 286 287 288 282 284 284 274 268 266 263 264 267 273 269 269 259 251 248 245 251
341 351 352 334 313 313 306 304 306 304 300 298 296 300 297 294 300 302 303 298 288 288 288 285 282 282 285 285 281 278 275 271 272 271 269 270 270 268 255 259 249 246 247
342 328 320 308 295 299 297 300 296 291 292 297 296 293 290 291 296 300 300 291 287 285 283 282 279 281 283 285 282 277 266 266 265 264 262 263 264 259 255 246 245 244 239
335 310 301 303 296 287 286 289 291 291 291 292 288 289 288 284 286 292 295 291 288 285 279 278 276 281 286 286 283 278 277 282 281 283 281 257 251 252 247 241 238 234 238
286 291 293 288 284 290 285 288 288 291 292 291 290 292 287 285 281 287 293 293 291 290 286 281 278 280 283 281 279 273 272 272 267 262 267 271 270 252 248 245 239 236 237
300 279 276 275 275 277 281 289 296 292 290 291 294 293 289 285 278 282 285 288 285 279 271 270 274 278 278 282 288 286 285 277 271 271 266 273 266 266 268 242 238 233 238
268 277 279 275 286 282 277 284 289 288 289 291 291 285 284 283 286 289 279 277 273 273 271 270 264 269 272 269 269 264 259 257 254 256 258 261 260 264 264 251 232 229 226
270 275 277 275 281 294 284 288 286 281 283 289 294 297 300 300 295 297 305 300 299 298 301 293 287 277 268 256 255 254 250 250 249 250 256 264 259 255 257 239 220 230 231
269 273 286 296 297 297 299 300 296 299 305 308 306 305 303 305 308 310 316 310 308 313 311 310 306 299 292 288 281 272 246 243 245 250 256 258 257 248 236 246 228 229 216
246 282 294 295 293 300 303 303 307 315 317 317 316 318 316 315 322 318 314 321 325 329 311 300 297 298 296 292 284 276 268 255 250 255 263 270 285 245 221 236 236 240 239
258 274 268 280 286 292 297 300 297 302 313 316 323 322 324 324 324 325 334 336 321 320 304 303 302 300 298 292 286 277 267 258 255 257 262 265 269 282 243 243 242 220 213
272 263 255 270 280 289 293 293 290 296 299 299 308 319 317 320 331 339 338 323 314 313 313 309 306 305 305 300 302 276 256 253 256 260 262 263 272 282 266 255 234 213 210
256 261 273 276 289 289 293 291 295 303 308 304 306 310 312 329 339 332 331 325 319 315 315 312 312 310 311 315 316 298 258 252 251 252 260 261 261 259 264 242 204 201 193
249 256 275 284 280 274 283 286 290 305 305 302 304 310 328 349 321 321 322 325 323 319 317 316 315 318 320 322 324 326 326 263 258 255 256 260 260 255 257 215 185 155 139
228 246 257 263 280 285 285 278 287 302 298 302 306 312 335 328 322 322 324 324 324 319 317 317 319 324 328 328 329 330 333 335 335 334 335 338 346 4 49 87 99 108 117
227 254 269 272 264 280 286 272 276 287 293 299 306 318 325 324 322 323 325 325 326 326 326 327 328 332 333 333 333 334 336 336 336 342 356 12 24 38 52 73 89 99 109
227 237 261 272 278 278 283 287 294 290 296 302 306 311 314 316 317 319 324 325 327 328 330 332 334 336 341 343 342 342 346 352 350 355 9 33 43 49 59 66 75 91 95
232 245 248 263 264 280 292 285 290 287 285 291 305 305 308 311 314 320 322 327 327 328 331 333 336 341 341 350 353 351 4 11 16 16 21 44 59 63 68 71 75 77 83
247 252 253 263 266 265 273 282 294 291 297 310 305 301 302 309 311 315 319 325 327 326 329 332 334 338 342 350 360 4 19 29 27 26 30 40 51 63 71 75 76 77 79